World > North America > United States > Washington

Burlington, Washington Regional Weather

Lat: 48.48N, Lon: 122.33W
Wx Zone: WAZ506Web Search

Helpful Tip: Abbreviated, 7 Day, 14 Day Forecasts. There is a weather forecast for every taste.

Feedback


°F Click to change Burlington hourly weather to Imperial units.Click to change Burlington hourly weather to Metric units. °C
Burlington Weather Map
UTC Time: 4/11/2021, 03:42
Your Time:

Burlington, WA Regional Weather

Expires:202104110400;;362902
ASUS46 KSEW 110320
RWRWA 

WASHINGTON REGIONAL WEATHER ROUNDUP
NATIONAL WEATHER SERVICE SEATTLE WA
800 PM PDT SAT APR 10 2021

NOTE:"FAIR" INDICATES FEW OR NO CLOUDS BELOW 12,000 FEET WITH NO 
SIGNIFICANT WEATHER AND/OR OBSTRUCTIONS TO VISIBILITY.


WAZ001-503-506-510-514-515-110400-
NORTH INTERIOR
  
CITY           SKY/WX    TMP DP  RH WIND       PRES   REMARKS
BELLINGHAM     CLEAR     45  25  45 W3        30.29R                  
FRIDAY HARBOR  MOCLDY    43  31  62 W5        30.31R                  
EASTSOUND      PTCLDY    45  32  61 S3        30.30R                  
PORT ANGELES   PTCLDY    40  32  73 W7        30.32R                  
EDIZ HOOK      FAIR      44  36  73 W15       30.32R                  
PORT TOWNSEND  MOCLDY    43  32  65 W8G15     30.31R                  
NAS WHIDBEY    MOCLDY    46  29  51 W8        30.34S                  
ARLINGTON      CLOUDY    44  28  53 CALM      30.31R                  
BURLINGTON     PTCLDY    41  25  52 CALM      30.30S                  
$$
 

SKY/WX - Weather  TMP - Temperature  DP - Dew Point  RH - Relative Humidity
WIND - Wind Direction/Speed PRES - Barometric Pressure VSB - Visibility
WCI - Wind Chill Index E13G22 Wind - East Wind 13 mph/Gusts of 22 mph